Weather History for Dallas Addison, TX

Change the Weather History Date:

Wednesday, January 8, 2014

  Actual Average Record
Temperature  
Mean Temperature 42 °F -  
Max Temperature 47 °F 53 °F 78 °F (2006)
Min Temperature 37 °F 38 °F 30 °F (1999)
Degree Days  
Heating Degree Days 23    
Moisture  
Dew Point 34 °F    
Average Humidity 75    
Maximum Humidity 100    
Minimum Humidity 33    
Precipitation  
Precipitation 0.00 in - - ()
Sea Level Pressure  
Sea Level Pressure 30.21 in    
Wind  
Wind Speed 11 mph (SSE)    
Max Wind Speed 16 mph    
Max Gust Speed 24 mph    
Visibility 6 miles    
Events Rain    
Averages and records for this station are not official NWS values.
T = Trace of Precipitation, MM = Missing Value Source: NWS Daily Summary

Daily Weather History Graph

Daily Weather History Graph

Search for Another Location

Airport:

Trip Planner

Search our weather history database for the weather conditions in past years. The results will help you decide how hot, cold, wet, or windy it might be!

Date:

Astronomy

Jan. 08, 2014 Rise Set
Actual Time 7:31 AM CST 5:37 PM CST
Civil Twilight 7:03 AM CST 6:04 PM CST
Nautical Twilight 6:33 AM CST 6:35 PM CST
Astronomical Twilight 6:03 AM CST 7:05 PM CST
Moon 12:20 PM CST (1/8) 12:48 AM CST (1/8)
Length of Visible Light 11h 00m
Length of Day
10h 06m
First Quarter, 56% of the Moon is Illuminated
Jan 8
First Quarter
Jan 15
Full
Jan 23
Last Quarter
Jan 30
New
Feb 6
First Quarter

Hourly Weather History & Observations

Time (CST) Temp. Windchill Dew Point Humidity Pressure Visibility Wind Dir Wind Speed Gust Speed Precip Events Conditions
12:15 AM 40.1 °F 33.2 °F 14.0 °F 35% 30.29 in 10.0 mi South 11.5 mph - N/A   Overcast
12:35 AM 41.0 °F 34.7 °F 14.0 °F 33% 30.28 in 10.0 mi South 10.4 mph 20.7 mph N/A   Overcast
12:55 AM 41.4 °F 34.3 °F 14.5 °F 34% 30.27 in 10.0 mi South 12.7 mph 18.4 mph N/A   Overcast
1:15 AM 41.4 °F 34.3 °F 15.4 °F 35% 30.26 in 10.0 mi South 12.7 mph 20.7 mph N/A   Overcast
1:35 AM 41.4 °F 35.2 °F 16.5 °F 37% 30.26 in 10.0 mi South 10.4 mph 20.7 mph N/A   Overcast
1:55 AM 41.4 °F 34.0 °F 17.8 °F 39% 30.26 in 10.0 mi South 13.8 mph 19.6 mph N/A   Overcast
2:15 AM 41.4 °F 36.2 °F 18.5 °F 40% 30.27 in 10.0 mi South 8.1 mph 20.7 mph N/A   Overcast
2:35 AM 41.2 °F 36.0 °F 19.6 °F 42% 30.27 in 10.0 mi South 8.1 mph 21.9 mph N/A   Overcast
2:55 AM 41.2 °F 33.0 °F 21.6 °F 46% 30.25 in 10.0 mi South 16.1 mph 19.6 mph N/A   Overcast
3:15 AM 41.2 °F 34.1 °F 23.2 °F 49% 30.25 in 10.0 mi South 12.7 mph 24.2 mph N/A   Overcast
3:35 AM 41.2 °F 34.1 °F 25.2 °F 53% 30.25 in 10.0 mi South 12.7 mph 19.6 mph N/A   Overcast
3:55 AM 41.0 °F 34.3 °F 27.3 °F 58% 30.25 in 10.0 mi South 11.5 mph 17.3 mph N/A   Overcast
4:15 AM 41.0 °F 33.9 °F 28.9 °F 62% 30.25 in 10.0 mi South 12.7 mph 18.4 mph N/A   Overcast
4:35 AM 41.0 °F 33.9 °F 30.6 °F 66% 30.23 in 10.0 mi South 12.7 mph 21.9 mph N/A   Overcast
4:55 AM 41.0 °F 34.3 °F 32.0 °F 70% 30.23 in 10.0 mi South 11.5 mph 23.0 mph N/A   Overcast
5:47 AM 39.2 °F 30.8 °F 32.0 °F 75% 30.22 in 13.0 mi South 15.0 mph 19.6 mph N/A   Overcast
6:47 AM 39.2 °F 32.0 °F 33.8 °F 81% 30.21 in 10.0 mi SSE 11.5 mph 19.6 mph N/A   Overcast
7:47 AM 39.2 °F 30.8 °F 35.6 °F 87% 30.23 in 7.0 mi SSE 15.0 mph 20.7 mph N/A   Overcast
8:47 AM 37.4 °F 28.2 °F 35.6 °F 93% 30.23 in 3.0 mi SE 16.1 mph 21.9 mph N/A   Overcast
10:47 AM 39.2 °F 31.2 °F 39.2 °F 100% 30.24 in 3.0 mi SSE 13.8 mph - N/A   Overcast
11:47 AM 39.2 °F 30.5 °F 37.4 °F 93% 30.20 in 3.0 mi SE 16.1 mph 23.0 mph N/A   Overcast
12:47 PM 41.0 °F 33.5 °F 37.4 °F 87% 30.16 in 2.5 mi SE 13.8 mph - N/A   Overcast
1:48 PM 41.0 °F 34.3 °F 39.2 °F 93% 30.14 in 2.0 mi SE 11.5 mph - N/A   Overcast
2:47 PM 42.8 °F 37.5 °F 42.8 °F 100% 30.14 in 2.0 mi SE 9.2 mph 13.8 mph N/A   Light Drizzle
3:08 PM 42.8 °F 37.0 °F 39.2 °F 87% 30.12 in 1.5 mi SE 10.4 mph - N/A   Drizzle
3:50 PM 42.8 °F 38.0 °F 41.0 °F 93% 30.11 in 2.0 mi SE 8.1 mph - N/A   Drizzle
5:47 PM 46.4 °F 42.4 °F 42.8 °F 87% 30.13 in 2.5 mi SE 8.1 mph - N/A   Overcast
6:47 PM 46.4 °F 42.9 °F 44.6 °F 93% 30.14 in 2.0 mi ESE 6.9 mph - N/A   Drizzle
7:47 PM 46.4 °F 42.9 °F 44.6 °F 93% 30.16 in 2.0 mi SE 6.9 mph 13.8 mph N/A   Drizzle
8:52 PM 46.4 °F 43.5 °F 46.4 °F 100% 30.18 in 2.0 mi ESE 5.8 mph - N/A Rain Light Rain
9:15 PM 47.3 °F - 47.3 °F 100% 30.19 in 2.5 mi SE 8.1 mph - N/A   Drizzle
9:35 PM 47.3 °F - 47.3 °F 100% 30.19 in 2.0 mi SE 5.8 mph - N/A   Drizzle
9:55 PM 47.3 °F - 47.3 °F 100% 30.20 in 2.0 mi SE 6.9 mph - N/A   Drizzle
10:15 PM 47.3 °F - 47.3 °F 100% 30.19 in 2.5 mi SE 6.9 mph - N/A Rain Rain
10:35 PM 47.3 °F - 47.3 °F 100% 30.19 in 2.5 mi SSE 8.1 mph - N/A   Drizzle
11:15 PM 47.3 °F - 47.3 °F 100% 30.18 in 3.0 mi SE 9.2 mph - N/A   Light Drizzle
11:35 PM 47.3 °F - 47.3 °F 100% 30.17 in 3.0 mi SE 9.2 mph - N/A   Overcast
11:55 PM 47.3 °F - 47.3 °F 100% 30.17 in 4.0 mi SE 8.1 mph - N/A   Overcast